STARLINK-37116, 68213

Orbit data source: Space-Track

STARLINK-37116, 68213 is a payload satellite owned by SpaceX/Seattle (US) in SSO that was launched on Tue, 17 Mar 2026 UTC via an FALCON 9 launch vehicle from the Air Force Western Test Range (AFWTR). Payload-class satellites include a variety of spacecraft equipped with specific instruments for various scientific and technological missions. These include communications satellites like Starlink; space stations such as the ISS; scientific satellites like the Hubble; Earth observation satellites from companies like Planet Labs, Umbra, and HawkEye 360; GPS; miniature CubeSats for education and research; and military/defense satellites.

Loading next visibility...
Identifier
68213, 2026-053G
Orbit
SSO
Country
Flag of USUS
Related business
Manufacturer
SpaceX/Seattle
Mission
Operational spacecraft
Bus & Motor
STARLINK V2MO, Unknown motor
Mass
575 kg wet, ~530 kg dry
Launch date (UTC)
2026-03-17 (3 months ago)
Launch vehicle
FALCON 9
Launch site
Air Force Western Test Range (AFWTR)
Object type
Payload
Rocket body
Debris
Shape & HBR
Unknown shape, 17.7 m
Radar Cross Section
Large (>1 m²)

Expand to show TLE details & history
Last TLE update: 11 hours ago

TLE from 11 hours ago
0 STARLINK-37116
1 68213U 26053G   26171.37885868  .00014701  00000-0  45674-3 0  9998
2 68213  97.2864  46.4271 0001621  81.3168 278.8258 15.33450296 15957
Epoch: 2026-06-20T09:05Z
TLE epoch observation values (Epoch: 2026-06-20T09:05:33.389Z)
Latitude
-0.00008°
Longitude
1.44366°
Altitude
468.469 km
Speed
7.632 km/s
True Right ascension
03h 05m 42s
True Declination
0° 00' 00"
Sunlit
Object was in daylight at epoch
Visualization orbit readout
Latitude
Unknown
Longitude
Unknown
Altitude
Unknown
Speed
Unknown
Apparent Right ascension
Unknown
Apparent Declination
Unknown
Sunlit
N/A
Visualization observer readout
Local Sidereal Time
07:23:43
Azimuth
Unknown
Elevation
Unknown
Doppler factor
Unknown
Orbital elements
Apogee altitude
463.579 km
Perigee altitude
461.361 km
Semi-major axis
6,840.607 km
Eccentricity
0.00016
Inclination
97.2864°
RAAN
46.4271°
Arg. of periapsis
81.3168°
True anomaly
278.80744°
Mean anomaly
278.8258°
Eccentric anomaly
278.81662°
Mean motion
3.8362 °/min
Orbital period
93.84 mins
BSTAR
0.00045674
Loading maneuver chart data...
Computing Atmospheric mass density...
Loading historical data...
Loading historical data...
Loading historical data...
Loading historical data...
Loading historical data...
Loading historical data...
Loading historical data...

Documentation

Showing up to 5 results
|